Location: Wolf Lake
(46.8518°N, 80.6381°W)
Time: 10:06:46
(UTC-04:00)

ISS - Pass Details

Date: 18 March 2026
Orbit: 416 x 425 km, 51.6° (Epoch: 19 April)

Event Time Altitude Azimuth Distance (km) Brightness Sun altitude
Rises 20:11:22 0° 266° (W) 2,385 2.1 -7.4°
Reaches altitude 10° 20:13:32 10° 273° (W) 1,519 0.8 -7.8°
Maximum altitude 20:16:49 43° 347° (NNW) 607 -2.8 -8.4°
Drops below altitude 10° 20:20:06 10° 61° (ENE) 1,517 -1.4 -8.9°
Enters shadow 20:20:29 - 62° (ENE) 1,665 -1.2 -9.0°
